DW9643 Weather Reports


time (UTC)temp
F
wind
direction
speed
knots
gust
knots
rain 1hr
in
rain 24hr
in
rain mn
in
humidity
%
barometer
mb
20260507170105 56 311 6.1 14.8 0.00 0.01 0.01 43 1017.1
20260507164605 56 8 4.3 12.2 0.00 0.01 0.01 45 1017.1
20260507163059 57 281 4.3 9.6 0.00 0.01 0.01 43 1017.3
20260507161601 57 344 1.7 9.6 0.00 0.01 0.01 49 1017.2
20260507160058 56 0 3.5 12.2 0.00 0.01 0.01 45 1017.3
20260507154601 55 8 5.2 12.2 0.00 0.01 0.01 49 1017.2
20260507153110 55 0 3.5 10.4 0.00 0.01 0.01 51 1017.2
20260507151600 54 342 5.2 12.2 0.00 0.01 0.01 45 1017.0
20260507150058 54 332 2.6 9.6 0.00 0.01 0.01 53 1017.0
20260507144559 53 332 3.5 9.6 0.00 0.01 0.01 51 1017.1
20260507143107 52 308 2.6 8.7 0.00 0.01 0.01 54 1017.3
20260507141557 51 342 5.2 9.6 0.00 0.01 0.01 51 1017.3
20260507140057 50 307 3.5 10.4 0.00 0.01 0.01 52 1017.3
20260507134607 49 25 3.5 9.6 0.00 0.01 0.01 55 1017.3
20260507133132 49 308 4.3 8.7 0.00 0.01 0.01 61 1017.2
20260507131557 47 312 3.5 9.6 0.00 0.01 0.01 61 1017.2
20260507130110 45 0 1.7 6.1 0.00 0.01 0.01 74 1017.0
20260507124559 43 12 0.9 4.3 0.00 0.01 0.01 84 1017.1
20260507123058 41 0 0.0 0.0 0.00 0.01 0.01 91 1017.2
20260507121616 40 0 0.0 3.5 0.00 0.01 0.01 93 1017.2
20260507120105 40 326 0.9 2.6 0.01 0.01 0.01 93 1017.2
20260507114639 39 0 0.0 0.0 0.01 0.01 0.01 94 1017.3
20260507113101 38 0 0.0 0.0 0.01 0.01 0.01 93 1017.2
20260507111603 38 0 0.0 0.0 0.01 0.01 0.01 93 1017.1
20260507110100 38 0 0.0 0.0 0.00 0.00 0.00 93 1016.9
20260507104559 38 0 0.0 0.0 0.00 0.00 0.00 92 1016.6
20260507103100 38 0 0.0 0.0 0.00 0.00 0.00 92 1016.5
20260507101614 38 0 0.0 0.0 0.00 0.00 0.00 92 1016.6
20260507100104 39 0 0.0 0.0 0.00 0.00 0.00 93 1016.6
20260507094605 39 0 0.0 1.7 0.00 0.00 0.00 92 1016.6
20260507093058 39 0 0.0 1.7 0.00 0.00 0.00 93 1016.6
20260507091559 39 0 0.0 0.0 0.00 0.00 0.00 92 1016.4
20260507084602 39 0 0.0 0.0 0.00 0.01 0.00 92 1016.4
20260507083100 40 0 0.0 0.0 0.00 0.01 0.00 92 1016.3
20260507081558 40 0 0.0 0.0 0.00 0.01 0.00 92 1016.2
20260507080118 40 0 0.0 0.0 0.00 0.01 0.00 92 1016.2
20260507074559 41 0 0.0 0.0 0.00 0.08 0.00 92 1016.2
20260507073106 41 0 0.0 0.0 0.00 0.08 0.00 91 1016.2
20260507071557 41 0 0.0 0.0 0.00 0.08 0.00 91 1016.2
20260507070100 42 0 0.0 0.0 0.00 0.08 0.00 91 1016.2
20260507064600 42 0 0.0 0.0 0.00 0.33 0.00 91 1016.2
20260507063106 42 0 0.0 0.0 0.00 0.33 0.00 91 1016.3
20260507061558 42 0 0.0 0.0 0.00 0.33 0.00 91 1016.4
20260507060058 43 0 0.0 0.0 0.00 0.33 0.00 91 1016.3
20260507054559 43 0 0.0 0.0 0.00 0.57 0.00 91 1016.3
20260507053113 43 0 0.0 0.0 0.00 0.57 0.00 90 1016.3
20260507051605 44 0 0.0 0.0 0.00 0.57 0.00 90 1016.3
20260507044559 44 0 0.0 0.0 0.00 0.68 0.00 89 1016.3
20260507043100 45 0 0.0 0.0 0.00 0.68 0.00 89 1016.5
20260507041600 45 0 0.0 0.0 0.00 0.68 0.00 88 1016.4
20260507034601 46 0 0.0 0.0 0.00 0.72 0.68 87 1016.2
20260507033110 46 0 0.0 0.0 0.00 0.72 0.68 85 1016.4
20260507031603 47 0 0.0 0.0 0.00 0.72 0.68 83 1016.4
20260507030058 47 0 0.0 0.0 0.00 0.72 0.68 81 1016.4
20260507024608 48 0 0.0 0.0 0.00 0.83 0.68 80 1016.3
20260507023059 49 0 0.0 0.0 0.00 0.83 0.68 77 1016.3
20260507021606 49 0 0.0 0.0 0.00 0.83 0.68 76 1016.2
20260507020114 50 0 0.0 0.0 0.00 0.83 0.68 74 1016.1
20260507014605 51 0 0.0 0.0 0.00 0.96 0.68 72 1016.0
20260507013101 52 0 0.0 0.0 0.00 0.96 0.68 68 1015.9
20260507011558 53 0 0.0 1.7 0.00 0.96 0.68 65 1015.6
20260507004607 55 325 0.9 2.6 0.00 0.96 0.68 61 1015.5
20260507003100 56 324 0.9 4.3 0.00 0.96 0.68 58 1015.4
20260507001559 56 320 0.9 7.8 0.00 0.96 0.68 56 1015.4
20260506234559 57 344 2.6 7.8 0.00 0.98 0.68 57 1015.1
20260506233112 57 320 3.5 9.6 0.00 0.98 0.68 57 1014.7
20260506231603 58 336 3.5 7.8 0.00 0.98 0.68 56 1014.6
20260506230103 59 337 1.7 10.4 0.00 0.98 0.68 55 1014.2
20260506224607 58 7 0.9 7.0 0.00 0.99 0.68 55 1014.5
20260506223058 58 336 2.6 7.0 0.00 0.99 0.68 54 1014.5
20260506221609 58 275 1.7 7.8 0.00 0.99 0.68 52 1014.8
20260506220057 58 332 3.5 8.7 0.00 0.99 0.68 54 1014.8
20260506214557 59 305 2.6 7.8 0.00 1.02 0.68 50 1015.1
20260506213124 59 347 2.6 8.7 0.00 1.02 0.68 54 1015.0
20260506211558 60 350 3.5 7.8 0.00 1.02 0.68 49 1014.8
20260506210058 59 0 2.6 9.6 0.00 1.02 0.68 48 1014.8
20260506204559 59 338 2.6 11.3 0.00 1.12 0.68 49 1014.6
20260506203058 59 334 6.1 12.2 0.00 1.12 0.68 51 1014.6
20260506201600 59 309 4.3 11.3 0.00 1.12 0.68 54 1014.7
20260506200059 59 334 4.3 9.6 0.00 1.12 0.68 55 1014.6
20260506194602 59 5 4.3 9.6 0.00 1.33 0.68 54 1014.6
20260506193057 60 239 1.7 6.1 0.00 1.33 0.68 59 1014.5
20260506191558 61 330 2.6 7.0 0.00 1.33 0.68 53 1014.2
20260506190106 61 338 3.5 8.7 0.00 1.33 0.68 55 1014.1
20260506184609 60 20 3.5 8.7 0.00 1.33 0.68 56 1014.2
20260506183105 60 0 0.9 9.6 0.00 1.33 0.68 60 1014.1
20260506181623 60 344 1.7 9.6 0.00 1.33 0.68 61 1014.1
20260506180058 59 8 4.3 10.4 0.00 1.33 0.68 59 1014.2
20260506174559 60 337 4.3 10.4 0.00 1.33 0.68 60 1014.6
20260506173108 58 335 3.5 8.7 0.00 1.33 0.68 57 1014.8
20260506171605 59 74 1.7 10.4 0.00 1.33 0.68 60 1014.8